Weather History for KTAD - March, 2013

Change the Weather History Date:

Saturday, March 9, 2013

  Actual Average Record
Temperature  
Mean Temperature 35 °F 41 °F  
Max Temperature 45 °F 56 °F 82 °F (1989)
Min Temperature 25 °F 25 °F 7 °F (1969)
Degree Days  
Heating Degree Days 30 24  
Month to date heating degree days 208 229  
Since 1 July heating degree days 4149 4351  
Cooling Degree Days 0 0  
Month to date cooling degree days 0 0  
Year to date cooling degree days 0 0  
Moisture  
Dew Point 26 °F    
Average Humidity 67    
Maximum Humidity 100    
Minimum Humidity 33    
Precipitation  
Precipitation 0.01 in 0.03 in 0.39 in (1979)
Month to date precipitation 0.10 0.24  
Year to date precipitation 0.48 1.13  
Sea Level Pressure  
Sea Level Pressure 29.76 in    
Wind  
Wind Speed 15 mph (NNW)    
Max Wind Speed 32 mph    
Max Gust Speed 38 mph    
Visibility 3 miles    
Events Fog , Snow    
T = Trace of Precipitation, MM = Missing Value Source: NWS Daily Summary

Daily Weather History Graph

Daily Weather History Graph

Search for Another Location

Airport or City:

Trip Planner

Search our weather history database for the weather conditions in past years. The results will help you decide how hot, cold, wet, or windy it might be!

Date:

Astronomy

Mar. 09, 2013 Rise Set
Actual Time 6:16 AM MST 5:59 PM MST
Civil Twilight 5:50 AM MST 6:25 PM MST
Nautical Twilight 5:20 AM MST 6:55 PM MST
Astronomical Twilight 4:50 AM MST 7:25 PM MST
Moon 4:40 AM MST (3/9) 4:05 PM MST (3/9)
Length of Visible Light 12h 34m
Length of Day
11h 42m
Waning Crescent, 5% of the Moon is Illuminated
Mar 9
Waning Crescent
Mar 11
New
Mar 19
First Quarter
Mar 27
Full
Apr 2
Last Quarter

Hourly Weather History & Observations

Time (MST) Temp. Windchill Dew Point Humidity Pressure Visibility Wind Dir Wind Speed Gust Speed Precip Events Conditions
12:54 AM 42.1 °F 39.2 °F 28.0 °F 58% 29.48 in 10.0 mi SW 4.6 mph - N/A   Clear
1:54 AM 42.1 °F 37.7 °F 28.0 °F 58% 29.47 in 10.0 mi West 6.9 mph - N/A   Clear
2:54 AM 39.9 °F 33.4 °F 28.9 °F 65% 29.44 in 10.0 mi West 10.4 mph - N/A   Clear
3:54 AM 37.0 °F 31.6 °F 27.0 °F 67% 29.45 in 10.0 mi WNW 6.9 mph - N/A   Clear
4:54 AM 41.0 °F 32.5 °F 25.0 °F 53% 29.45 in 10.0 mi SW 17.3 mph 20.7 mph N/A   Clear
5:54 AM 42.1 °F 31.0 °F 19.9 °F 41% 29.46 in 10.0 mi WSW 32.2 mph 38.0 mph N/A   Mostly Cloudy
6:54 AM 43.0 °F 34.0 °F 19.0 °F 38% 29.46 in 10.0 mi WSW 21.9 mph 29.9 mph N/A   Overcast
7:54 AM 44.1 °F 40.1 °F 18.0 °F 35% 29.48 in 10.0 mi NW 6.9 mph - N/A   Overcast
8:54 AM 39.0 °F 33.4 °F 28.9 °F 67% 29.54 in 10.0 mi NE 8.1 mph - N/A   Overcast
9:54 AM 39.9 °F 35.8 °F 24.1 °F 53% 29.55 in 8.0 mi South 5.8 mph - N/A   Overcast
10:54 AM 41.0 °F 30.5 °F 21.9 °F 47% 29.52 in 10.0 mi NNW 26.5 mph 34.5 mph N/A   Overcast
11:54 AM 34.0 °F 21.5 °F 28.0 °F 79% 29.57 in 8.0 mi NNW 24.2 mph 36.8 mph 0.00 in Snow Light Snow
12:05 PM 33.8 °F 20.5 °F 28.4 °F 81% 29.64 in 3.0 mi NW 27.6 mph 34.5 mph 0.00 in Snow Light Snow
12:09 PM 33.8 °F 21.0 °F 28.4 °F 81% 29.64 in 1.5 mi NW 25.3 mph 33.4 mph 0.00 in Snow Light Snow
12:19 PM 32.0 °F 19.2 °F 28.4 °F 87% 29.64 in 0.8 mi NW 23.0 mph 32.2 mph 0.00 in Snow Light Snow
12:32 PM 30.2 °F 17.1 °F 28.4 °F 93% 29.65 in 0.2 mi NW 21.9 mph 32.2 mph 0.00 in Fog , Snow Heavy Snow
12:44 PM 30.2 °F 18.1 °F 28.4 °F 93% 29.65 in 0.2 mi NW 18.4 mph 27.6 mph 0.00 in Fog , Snow Heavy Snow
12:54 PM 30.9 °F 18.1 °F 28.9 °F 92% 29.62 in 0.2 mi NW 21.9 mph - 0.00 in Fog , Snow Heavy Snow
1:05 PM 30.2 °F 17.8 °F 28.4 °F 93% 29.66 in 0.2 mi NW 19.6 mph 27.6 mph 0.00 in Fog , Snow Heavy Snow
1:12 PM 30.2 °F 18.1 °F 28.4 °F 93% 29.66 in 0.2 mi NW 18.4 mph - 0.00 in Fog , Snow Snow
1:54 PM 30.9 °F 20.7 °F 28.9 °F 92% 29.65 in 0.2 mi NW 13.8 mph - 0.00 in Fog , Snow Snow
2:54 PM 30.9 °F 20.2 °F 30.0 °F 96% 29.70 in 0.2 mi NNW 15.0 mph - 0.00 in Fog , Snow Heavy Snow
3:11 PM 30.2 °F 17.8 °F 28.4 °F 93% 29.73 in 0.5 mi North 19.6 mph 28.8 mph 0.00 in Fog , Snow Snow
3:18 PM 30.2 °F 18.9 °F 28.4 °F 93% 29.73 in 0.2 mi North 16.1 mph - 0.00 in Fog , Snow Snow
3:30 PM 30.2 °F 19.3 °F 28.4 °F 93% 29.74 in 0.5 mi North 15.0 mph - 0.00 in Fog , Snow Snow
3:44 PM 30.2 °F 17.8 °F 28.4 °F 93% 29.75 in 0.2 mi North 19.6 mph 25.3 mph 0.00 in Fog , Snow Snow
3:54 PM 30.0 °F 18.3 °F 28.0 °F 92% 29.76 in 0.2 mi North 17.3 mph 26.5 mph 0.00 in Fog , Snow Snow
4:36 PM 28.4 °F 15.4 °F 26.6 °F 93% 29.78 in 0.5 mi North 19.6 mph 27.6 mph 0.00 in Fog , Snow Snow
4:46 PM 28.4 °F 17.0 °F 26.6 °F 93% 29.79 in 0.2 mi North 15.0 mph - 0.00 in Fog , Snow Snow
4:54 PM 28.9 °F 18.2 °F 27.0 °F 92% 29.79 in 0.5 mi North 13.8 mph - 0.00 in Fog , Snow Light Snow
5:07 PM 28.4 °F 17.0 °F 26.6 °F 93% 29.81 in 1.0 mi North 15.0 mph - 0.00 in Snow Light Snow
5:19 PM 30.2 °F 17.1 °F 26.6 °F 86% 29.82 in 1.2 mi North 21.9 mph 29.9 mph 0.01 in Snow Light Snow
5:28 PM 28.4 °F 14.4 °F 26.6 °F 93% 29.83 in 1.5 mi North 23.0 mph 33.4 mph 0.01 in Snow Light Snow
5:36 PM 28.4 °F 14.1 °F 26.6 °F 93% 29.83 in 2.0 mi North 24.2 mph 31.1 mph 0.01 in Snow Light Snow
5:41 PM 28.4 °F 14.7 °F 26.6 °F 93% 29.84 in 1.8 mi North 21.9 mph 31.1 mph 0.01 in Snow Light Snow
5:54 PM 28.9 °F 15.1 °F 26.1 °F 89% 29.83 in 1.8 mi North 23.0 mph 29.9 mph 0.01 in Snow Light Snow
6:16 PM 28.4 °F 16.2 °F 26.6 °F 93% 29.86 in 2.0 mi North 17.3 mph 25.3 mph 0.00 in Snow Light Snow
6:21 PM 28.4 °F 16.6 °F 26.6 °F 93% 29.87 in 1.8 mi North 16.1 mph 25.3 mph 0.00 in Snow Light Snow
6:38 PM 28.4 °F 17.5 °F 26.6 °F 93% 29.88 in 2.0 mi North 13.8 mph - 0.00 in Snow Light Snow
6:54 PM 28.0 °F 20.0 °F 26.1 °F 92% 29.87 in 2.0 mi North 8.1 mph - 0.00 in Snow Light Snow
7:03 PM 28.4 °F 17.5 °F 26.6 °F 93% 29.89 in 1.8 mi North 13.8 mph 19.6 mph 0.00 in Snow Light Snow
7:06 PM 28.4 °F 15.4 °F 26.6 °F 93% 29.88 in 2.0 mi North 19.6 mph 25.3 mph 0.00 in Snow Light Snow
7:11 PM 28.4 °F 15.4 °F 26.6 °F 93% 29.88 in 3.0 mi North 19.6 mph 26.5 mph 0.00 in Snow Light Snow
7:26 PM 28.4 °F 13.0 °F 26.6 °F 93% 29.88 in 2.5 mi North 28.8 mph 38.0 mph 0.00 in Snow Light Snow
7:47 PM 28.4 °F 15.8 °F 26.6 °F 93% 29.92 in 1.5 mi North 18.4 mph 28.8 mph 0.00 in Snow Light Snow
7:54 PM 28.9 °F 16.5 °F 27.0 °F 92% 29.91 in 1.0 mi North 18.4 mph - 0.00 in Snow Light Snow
8:03 PM 28.4 °F 17.0 °F 26.6 °F 93% 29.93 in 0.8 mi North 15.0 mph 26.5 mph 0.00 in Snow Light Snow
8:11 PM 28.4 °F 17.5 °F 26.6 °F 93% 29.94 in 1.0 mi North 13.8 mph - 0.00 in Snow Light Snow
8:19 PM 28.4 °F 17.0 °F 26.6 °F 93% 29.95 in 0.8 mi North 15.0 mph - 0.00 in Snow Light Snow
8:54 PM 28.0 °F 15.3 °F 26.1 °F 92% 29.97 in 0.8 mi North 18.4 mph 32.2 mph 0.00 in Snow Light Snow
9:17 PM 28.4 °F 14.4 °F 24.8 °F 86% 29.98 in 1.0 mi NNE 23.0 mph 33.4 mph 0.00 in Snow Light Snow
9:54 PM 28.0 °F 14.3 °F 25.0 °F 88% 30.01 in 1.8 mi NNE 21.9 mph 26.5 mph 0.00 in Snow Light Snow
10:03 PM 28.4 °F 17.0 °F 24.8 °F 86% 30.01 in 2.0 mi NNE 15.0 mph 24.2 mph 0.00 in Snow Light Snow
10:13 PM 28.4 °F 15.8 °F 23.0 °F 80% 30.01 in 4.0 mi NNE 18.4 mph 25.3 mph 0.00 in Snow Light Snow
10:24 PM 28.4 °F 17.0 °F 21.2 °F 74% 30.02 in 9.0 mi NNE 15.0 mph 21.9 mph 0.00 in   Overcast
10:54 PM 28.0 °F 18.1 °F 19.9 °F 72% 30.03 in 10.0 mi North 11.5 mph - 0.00 in   Scattered Clouds
11:54 PM 25.0 °F 14.2 °F 17.1 °F 72% 30.09 in 10.0 mi NNE 11.5 mph - N/A   Mostly Cloudy